owner,sensor,date,latitude,longitude,mass_concentration_of_chlorophyll_in_sea_water,qcFlag 
SCCF RECON,ioos:station:SCCF:56:1,2019-03-01T05:00:00Z,26.4645,-82.1044,2.6,1111122 
SCCF RECON,ioos:station:SCCF:56:1,2019-03-01T06:00:00Z,26.4645,-82.1044,1.77,1111122 
SCCF RECON,ioos:station:SCCF:56:1,2019-03-01T07:00:00Z,26.4645,-82.1044,1.81,1111122 
SCCF RECON,ioos:station:SCCF:56:1,2019-03-01T08:00:00Z,26.4645,-82.1044,1.84,1111122 
SCCF RECON,ioos:station:SCCF:56:1,2019-03-01T09:00:00Z,26.4645,-82.1044,1.87,1111122 
SCCF RECON,ioos:station:SCCF:56:1,2019-03-01T10:00:00Z,26.4645,-82.1044,1.91,1111122 
SCCF RECON,ioos:station:SCCF:56:1,2019-03-01T11:00:00Z,26.4645,-82.1044,1.87,1111122 
SCCF RECON,ioos:station:SCCF:56:1,2019-03-01T12:00:00Z,26.4645,-82.1044,1.78,1111122 
SCCF RECON,ioos:station:SCCF:56:1,2019-03-01T13:00:00Z,26.4645,-82.1044,1.79,1111122 
SCCF RECON,ioos:station:SCCF:56:1,2019-03-01T14:00:00Z,26.4645,-82.1044,1.7,1111122 
SCCF RECON,ioos:station:SCCF:56:1,2019-03-01T15:00:00Z,26.4645,-82.1044,1.66,1111122 
SCCF RECON,ioos:station:SCCF:56:1,2019-03-01T16:00:00Z,26.4645,-82.1044,1.62,1111122 
SCCF RECON,ioos:station:SCCF:56:1,2019-03-01T17:00:00Z,26.4645,-82.1044,1.61,1111122 
SCCF RECON,ioos:station:SCCF:56:1,2019-03-01T18:00:00Z,26.4645,-82.1044,1.76,1111122 
SCCF RECON,ioos:station:SCCF:56:1,2019-03-01T19:00:00Z,26.4645,-82.1044,1.75,1111122 
SCCF RECON,ioos:station:SCCF:56:1,2019-03-01T20:00:00Z,26.4645,-82.1044,1.8,1111122 
SCCF RECON,ioos:station:SCCF:56:1,2019-03-01T21:00:00Z,26.4645,-82.1044,1.87,1111122 
SCCF RECON,ioos:station:SCCF:56:1,2019-03-01T22:00:00Z,26.4645,-82.1044,1.93,1111122 
SCCF RECON,ioos:station:SCCF:56:1,2019-03-01T23:00:00Z,26.4645,-82.1044,1.85,1111122 
SCCF RECON,ioos:station:SCCF:56:1,2019-03-02T05:00:00Z,26.4645,-82.1044,2.09,1111122 
SCCF RECON,ioos:station:SCCF:56:1,2019-03-02T06:00:00Z,26.4645,-82.1044,1.88,1111122 
SCCF RECON,ioos:station:SCCF:56:1,2019-03-02T07:00:00Z,26.4645,-82.1044,1.8,1111122 
SCCF RECON,ioos:station:SCCF:56:1,2019-03-02T08:00:00Z,26.4645,-82.1044,1.91,1111122 
SCCF RECON,ioos:station:SCCF:56:1,2019-03-02T09:00:00Z,26.4645,-82.1044,1.96,1111122 
SCCF RECON,ioos:station:SCCF:56:1,2019-03-02T10:00:00Z,26.4645,-82.1044,2.5,1111122 
SCCF RECON,ioos:station:SCCF:56:1,2019-03-02T11:00:00Z,26.4645,-82.1044,2.0,1111122 
SCCF RECON,ioos:station:SCCF:56:1,2019-03-02T12:00:00Z,26.4645,-82.1044,2.02,1111122 
SCCF RECON,ioos:station:SCCF:56:1,2019-03-02T13:00:00Z,26.4645,-82.1044,2.06,1111122 
SCCF RECON,ioos:station:SCCF:56:1,2019-03-02T14:00:00Z,26.4645,-82.1044,1.92,1111122 
SCCF RECON,ioos:station:SCCF:56:1,2019-03-02T15:00:00Z,26.4645,-82.1044,1.88,1111122 
SCCF RECON,ioos:station:SCCF:56:1,2019-03-02T16:00:00Z,26.4645,-82.1044,1.82,1111122 
SCCF RECON,ioos:station:SCCF:56:1,2019-03-02T17:00:00Z,26.4645,-82.1044,1.81,1111122 
SCCF RECON,ioos:station:SCCF:56:1,2019-03-02T18:00:00Z,26.4645,-82.1044,1.92,1111122 
SCCF RECON,ioos:station:SCCF:56:1,2019-03-02T19:00:00Z,26.4645,-82.1044,1.99,1111122 
SCCF RECON,ioos:station:SCCF:56:1,2019-03-02T20:00:00Z,26.4645,-82.1044,2.15,1111122 
SCCF RECON,ioos:station:SCCF:56:1,2019-03-02T21:00:00Z,26.4645,-82.1044,2.13,1111122 
SCCF RECON,ioos:station:SCCF:56:1,2019-03-02T22:00:00Z,26.4645,-82.1044,2.3,1111122 
SCCF RECON,ioos:station:SCCF:56:1,2019-03-02T23:00:00Z,26.4645,-82.1044,2.34,1111122 
SCCF RECON,ioos:station:SCCF:56:1,2019-03-03T05:00:00Z,26.4645,-82.1044,2.21,1111122 
SCCF RECON,ioos:station:SCCF:56:1,2019-03-03T06:00:00Z,26.4645,-82.1044,1.9,1111122 
SCCF RECON,ioos:station:SCCF:56:1,2019-03-03T07:00:00Z,26.4645,-82.1044,1.84,1111122 
SCCF RECON,ioos:station:SCCF:56:1,2019-03-03T08:00:00Z,26.4645,-82.1044,1.9,1111122 
SCCF RECON,ioos:station:SCCF:56:1,2019-03-03T09:00:00Z,26.4645,-82.1044,1.88,1111122 
SCCF RECON,ioos:station:SCCF:56:1,2019-03-03T10:00:00Z,26.4645,-82.1044,1.88,1111122 
SCCF RECON,ioos:station:SCCF:56:1,2019-03-03T11:00:00Z,26.4645,-82.1044,1.96,1111122 
SCCF RECON,ioos:station:SCCF:56:1,2019-03-03T12:00:00Z,26.4645,-82.1044,2.03,1111122 
SCCF RECON,ioos:station:SCCF:56:1,2019-03-03T13:00:00Z,26.4645,-82.1044,1.9,1111122 
SCCF RECON,ioos:station:SCCF:56:1,2019-03-03T14:00:00Z,26.4645,-82.1044,1.72,1111122 
SCCF RECON,ioos:station:SCCF:56:1,2019-03-03T15:00:00Z,26.4645,-82.1044,1.69,1111122 
SCCF RECON,ioos:station:SCCF:56:1,2019-03-03T16:00:00Z,26.4645,-82.1044,1.65,1111122 
SCCF RECON,ioos:station:SCCF:56:1,2019-03-03T17:00:00Z,26.4645,-82.1044,1.69,1111122 
SCCF RECON,ioos:station:SCCF:56:1,2019-03-03T18:00:00Z,26.4645,-82.1044,1.71,1111122 
SCCF RECON,ioos:station:SCCF:56:1,2019-03-03T19:00:00Z,26.4645,-82.1044,1.67,1111122 
SCCF RECON,ioos:station:SCCF:56:1,2019-03-03T20:00:00Z,26.4645,-82.1044,1.73,1111122 
SCCF RECON,ioos:station:SCCF:56:1,2019-03-03T21:00:00Z,26.4645,-82.1044,1.76,1111122 
SCCF RECON,ioos:station:SCCF:56:1,2019-03-03T22:00:00Z,26.4645,-82.1044,1.86,1111122 
SCCF RECON,ioos:station:SCCF:56:1,2019-03-03T23:00:00Z,26.4645,-82.1044,1.92,1111122 
SCCF RECON,ioos:station:SCCF:56:1,2019-03-04T05:00:00Z,26.4645,-82.1044,2.1,1111122 
SCCF RECON,ioos:station:SCCF:56:1,2019-03-04T06:00:00Z,26.4645,-82.1044,1.9,1111122 
SCCF RECON,ioos:station:SCCF:56:1,2019-03-04T07:00:00Z,26.4645,-82.1044,1.84,1111122 
SCCF RECON,ioos:station:SCCF:56:1,2019-03-04T08:00:00Z,26.4645,-82.1044,1.8,1111122 
SCCF RECON,ioos:station:SCCF:56:1,2019-03-04T09:00:00Z,26.4645,-82.1044,1.67,1111122 
SCCF RECON,ioos:station:SCCF:56:1,2019-03-04T10:00:00Z,26.4645,-82.1044,1.79,1111122 
SCCF RECON,ioos:station:SCCF:56:1,2019-03-04T11:00:00Z,26.4645,-82.1044,1.85,1111122 
SCCF RECON,ioos:station:SCCF:56:1,2019-03-04T12:00:00Z,26.4645,-82.1044,1.87,1111122 
SCCF RECON,ioos:station:SCCF:56:1,2019-03-04T13:00:00Z,26.4645,-82.1044,1.83,1111122 
SCCF RECON,ioos:station:SCCF:56:1,2019-03-04T14:00:00Z,26.4645,-82.1044,1.84,1111122 
SCCF RECON,ioos:station:SCCF:56:1,2019-03-04T15:00:00Z,26.4645,-82.1044,1.62,1111122 
SCCF RECON,ioos:station:SCCF:56:1,2019-03-04T16:00:00Z,26.4645,-82.1044,1.51,1111122 
SCCF RECON,ioos:station:SCCF:56:1,2019-03-04T17:00:00Z,26.4645,-82.1044,2.03,1111122 
SCCF RECON,ioos:station:SCCF:56:1,2019-03-04T18:00:00Z,26.4645,-82.1044,1.59,1111122 
SCCF RECON,ioos:station:SCCF:56:1,2019-03-04T19:00:00Z,26.4645,-82.1044,1.69,1111122 
SCCF RECON,ioos:station:SCCF:56:1,2019-03-04T20:00:00Z,26.4645,-82.1044,1.72,1111122 
SCCF RECON,ioos:station:SCCF:56:1,2019-03-04T21:00:00Z,26.4645,-82.1044,1.79,1111122 
SCCF RECON,ioos:station:SCCF:56:1,2019-03-04T22:00:00Z,26.4645,-82.1044,1.95,1111122 
SCCF RECON,ioos:station:SCCF:56:1,2019-03-04T23:00:00Z,26.4645,-82.1044,1.99,1111122 
SCCF RECON,ioos:station:SCCF:56:1,2019-03-05T05:00:00Z,26.4645,-82.1044,1.84,1111122 
SCCF RECON,ioos:station:SCCF:56:1,2019-03-05T06:00:00Z,26.4645,-82.1044,1.81,1111122 
SCCF RECON,ioos:station:SCCF:56:1,2019-03-05T07:00:00Z,26.4645,-82.1044,1.73,1111122 
SCCF RECON,ioos:station:SCCF:56:1,2019-03-05T08:00:00Z,26.4645,-82.1044,1.73,1111122 
SCCF RECON,ioos:station:SCCF:56:1,2019-03-05T09:00:00Z,26.4645,-82.1044,1.76,1111122 
SCCF RECON,ioos:station:SCCF:56:1,2019-03-05T10:00:00Z,26.4645,-82.1044,1.82,1111122 
SCCF RECON,ioos:station:SCCF:56:1,2019-03-05T11:00:00Z,26.4645,-82.1044,1.84,1111122 
SCCF RECON,ioos:station:SCCF:56:1,2019-03-05T12:00:00Z,26.4645,-82.1044,1.96,1111122 
SCCF RECON,ioos:station:SCCF:56:1,2019-03-05T13:00:00Z,26.4645,-82.1044,1.98,1111122 
SCCF RECON,ioos:station:SCCF:56:1,2019-03-05T14:00:00Z,26.4645,-82.1044,1.93,1111122 
SCCF RECON,ioos:station:SCCF:56:1,2019-03-05T15:00:00Z,26.4645,-82.1044,1.91,1111122 
SCCF RECON,ioos:station:SCCF:56:1,2019-03-05T16:00:00Z,26.4645,-82.1044,1.76,1111122 
SCCF RECON,ioos:station:SCCF:56:1,2019-03-05T17:00:00Z,26.4645,-82.1044,1.71,1111122 
SCCF RECON,ioos:station:SCCF:56:1,2019-03-05T18:00:00Z,26.4645,-82.1044,1.76,1111122 
SCCF RECON,ioos:station:SCCF:56:1,2019-03-05T19:00:00Z,26.4645,-82.1044,2.0,1111122 
SCCF RECON,ioos:station:SCCF:56:1,2019-03-05T20:00:00Z,26.4645,-82.1044,1.85,1111122 
SCCF RECON,ioos:station:SCCF:56:1,2019-03-05T21:00:00Z,26.4645,-82.1044,1.87,1111122 
SCCF RECON,ioos:station:SCCF:56:1,2019-03-05T23:00:00Z,26.4645,-82.1044,1.89,1111122 
SCCF RECON,ioos:station:SCCF:56:1,2019-03-06T05:00:00Z,26.4645,-82.1044,2.08,1111122 
SCCF RECON,ioos:station:SCCF:56:1,2019-03-06T06:00:00Z,26.4645,-82.1044,2.36,1111122 
SCCF RECON,ioos:station:SCCF:56:1,2019-03-06T07:00:00Z,26.4645,-82.1044,2.08,1111122 
SCCF RECON,ioos:station:SCCF:56:1,2019-03-06T08:00:00Z,26.4645,-82.1044,1.97,1111122 
SCCF RECON,ioos:station:SCCF:56:1,2019-03-06T09:00:00Z,26.4645,-82.1044,1.91,1111122 
SCCF RECON,ioos:station:SCCF:56:1,2019-03-06T10:00:00Z,26.4645,-82.1044,2.34,1111122 
SCCF RECON,ioos:station:SCCF:56:1,2019-03-06T11:00:00Z,26.4645,-82.1044,2.21,1111122 
SCCF RECON,ioos:station:SCCF:56:1,2019-03-06T12:00:00Z,26.4645,-82.1044,2.33,1111122 
SCCF RECON,ioos:station:SCCF:56:1,2019-03-06T13:00:00Z,26.4645,-82.1044,2.19,1111122 
SCCF RECON,ioos:station:SCCF:56:1,2019-03-06T14:00:00Z,26.4645,-82.1044,2.2,1111122 
SCCF RECON,ioos:station:SCCF:56:1,2019-03-06T15:00:00Z,26.4645,-82.1044,2.05,1111122 
SCCF RECON,ioos:station:SCCF:56:1,2019-03-06T16:00:00Z,26.4645,-82.1044,1.94,1111122 
SCCF RECON,ioos:station:SCCF:56:1,2019-03-06T17:00:00Z,26.4645,-82.1044,1.84,1111122 
SCCF RECON,ioos:station:SCCF:56:1,2019-03-06T18:00:00Z,26.4645,-82.1044,1.95,1111122 
SCCF RECON,ioos:station:SCCF:56:1,2019-03-06T19:00:00Z,26.4645,-82.1044,1.9,1111122 
SCCF RECON,ioos:station:SCCF:56:1,2019-03-06T20:00:00Z,26.4645,-82.1044,1.92,1111122 
SCCF RECON,ioos:station:SCCF:56:1,2019-03-06T21:00:00Z,26.4645,-82.1044,1.91,1111122 
SCCF RECON,ioos:station:SCCF:56:1,2019-03-06T22:00:00Z,26.4645,-82.1044,1.91,1111122 
SCCF RECON,ioos:station:SCCF:56:1,2019-03-06T23:00:00Z,26.4645,-82.1044,1.95,1111122 
SCCF RECON,ioos:station:SCCF:56:1,2019-03-07T05:00:00Z,26.4645,-82.1044,2.9,1111122 
SCCF RECON,ioos:station:SCCF:56:1,2019-03-07T06:00:00Z,26.4645,-82.1044,2.73,1111122 
SCCF RECON,ioos:station:SCCF:56:1,2019-03-07T07:00:00Z,26.4645,-82.1044,2.69,1111122 
SCCF RECON,ioos:station:SCCF:56:1,2019-03-07T08:00:00Z,26.4645,-82.1044,2.33,1111122 
SCCF RECON,ioos:station:SCCF:56:1,2019-03-07T09:00:00Z,26.4645,-82.1044,2.19,1111122 
SCCF RECON,ioos:station:SCCF:56:1,2019-03-07T10:00:00Z,26.4645,-82.1044,2.02,1111122 
SCCF RECON,ioos:station:SCCF:56:1,2019-03-07T11:00:00Z,26.4645,-82.1044,1.99,1111122 
SCCF RECON,ioos:station:SCCF:56:1,2019-03-07T12:00:00Z,26.4645,-82.1044,2.01,1111122 
SCCF RECON,ioos:station:SCCF:56:1,2019-03-07T13:00:00Z,26.4645,-82.1044,1.94,1111122 
SCCF RECON,ioos:station:SCCF:56:1,2019-03-07T14:00:00Z,26.4645,-82.1044,1.99,1111122 
SCCF RECON,ioos:station:SCCF:56:1,2019-03-07T15:00:00Z,26.4645,-82.1044,2.23,1111122 
SCCF RECON,ioos:station:SCCF:56:1,2019-03-07T16:00:00Z,26.4645,-82.1044,2.07,1111122 
SCCF RECON,ioos:station:SCCF:56:1,2019-03-07T17:00:00Z,26.4645,-82.1044,1.97,1111122 
SCCF RECON,ioos:station:SCCF:56:1,2019-03-07T18:00:00Z,26.4645,-82.1044,2.08,1111122 
SCCF RECON,ioos:station:SCCF:56:1,2019-03-07T19:00:00Z,26.4645,-82.1044,2.09,1111122 
SCCF RECON,ioos:station:SCCF:56:1,2019-03-07T20:00:00Z,26.4645,-82.1044,2.14,1111122 
SCCF RECON,ioos:station:SCCF:56:1,2019-03-07T21:00:00Z,26.4645,-82.1044,2.19,1111122 
SCCF RECON,ioos:station:SCCF:56:1,2019-03-07T22:00:00Z,26.4645,-82.1044,2.15,1111122 
SCCF RECON,ioos:station:SCCF:56:1,2019-03-07T23:00:00Z,26.4645,-82.1044,2.11,1111122 
SCCF RECON,ioos:station:SCCF:56:1,2019-03-08T05:00:00Z,26.4645,-82.1044,2.41,1111122 
SCCF RECON,ioos:station:SCCF:56:1,2019-03-08T06:00:00Z,26.4645,-82.1044,2.71,1111122 
SCCF RECON,ioos:station:SCCF:56:1,2019-03-08T07:00:00Z,26.4645,-82.1044,2.73,1111122 
SCCF RECON,ioos:station:SCCF:56:1,2019-03-08T08:00:00Z,26.4645,-82.1044,2.52,1111122 
SCCF RECON,ioos:station:SCCF:56:1,2019-03-08T09:00:00Z,26.4645,-82.1044,2.39,1111122 
SCCF RECON,ioos:station:SCCF:56:1,2019-03-08T10:00:00Z,26.4645,-82.1044,2.2,1111122 
SCCF RECON,ioos:station:SCCF:56:1,2019-03-08T11:00:00Z,26.4645,-82.1044,2.05,1111122 
SCCF RECON,ioos:station:SCCF:56:1,2019-03-08T12:00:00Z,26.4645,-82.1044,2.02,1111122 
SCCF RECON,ioos:station:SCCF:56:1,2019-03-08T13:00:00Z,26.4645,-82.1044,1.86,1111122 
SCCF RECON,ioos:station:SCCF:56:1,2019-03-08T14:00:00Z,26.4645,-82.1044,2.02,1111122 
SCCF RECON,ioos:station:SCCF:56:1,2019-03-08T16:00:00Z,26.4645,-82.1044,2.05,1111122 
SCCF RECON,ioos:station:SCCF:56:1,2019-03-08T17:00:00Z,26.4645,-82.1044,2.11,1111122 
SCCF RECON,ioos:station:SCCF:56:1,2019-03-08T18:00:00Z,26.4645,-82.1044,2.15,1111122 
SCCF RECON,ioos:station:SCCF:56:1,2019-03-08T19:00:00Z,26.4645,-82.1044,2.36,1111122 
SCCF RECON,ioos:station:SCCF:56:1,2019-03-08T20:00:00Z,26.4645,-82.1044,2.35,1111122 
SCCF RECON,ioos:station:SCCF:56:1,2019-03-08T21:00:00Z,26.4645,-82.1044,2.45,1111122 
SCCF RECON,ioos:station:SCCF:56:1,2019-03-08T22:00:00Z,26.4645,-82.1044,2.54,1111122 
SCCF RECON,ioos:station:SCCF:56:1,2019-03-08T23:00:00Z,26.4645,-82.1044,2.5,1111122 
SCCF RECON,ioos:station:SCCF:56:1,2019-03-09T05:00:00Z,26.4645,-82.1044,2.37,1111122 
SCCF RECON,ioos:station:SCCF:56:1,2019-03-09T06:00:00Z,26.4645,-82.1044,2.39,1111122 
SCCF RECON,ioos:station:SCCF:56:1,2019-03-09T07:00:00Z,26.4645,-82.1044,2.49,1111122 
SCCF RECON,ioos:station:SCCF:56:1,2019-03-09T08:00:00Z,26.4645,-82.1044,2.59,1111122 
SCCF RECON,ioos:station:SCCF:56:1,2019-03-09T09:00:00Z,26.4645,-82.1044,2.33,1111122 
SCCF RECON,ioos:station:SCCF:56:1,2019-03-09T10:00:00Z,26.4645,-82.1044,2.3,1111122 
SCCF RECON,ioos:station:SCCF:56:1,2019-03-09T11:00:00Z,26.4645,-82.1044,2.28,1111122 
SCCF RECON,ioos:station:SCCF:56:1,2019-03-09T12:00:00Z,26.4645,-82.1044,2.06,1111122 
SCCF RECON,ioos:station:SCCF:56:1,2019-03-09T13:00:00Z,26.4645,-82.1044,1.96,1111122 
SCCF RECON,ioos:station:SCCF:56:1,2019-03-09T14:00:00Z,26.4645,-82.1044,1.96,1111122 
SCCF RECON,ioos:station:SCCF:56:1,2019-03-09T15:00:00Z,26.4645,-82.1044,1.93,1111122 
SCCF RECON,ioos:station:SCCF:56:1,2019-03-09T16:00:00Z,26.4645,-82.1044,1.88,1111122 
SCCF RECON,ioos:station:SCCF:56:1,2019-03-09T17:00:00Z,26.4645,-82.1044,1.97,1111122 
SCCF RECON,ioos:station:SCCF:56:1,2019-03-09T18:00:00Z,26.4645,-82.1044,2.08,1111122 
SCCF RECON,ioos:station:SCCF:56:1,2019-03-09T19:00:00Z,26.4645,-82.1044,2.15,1111122 
SCCF RECON,ioos:station:SCCF:56:1,2019-03-09T20:00:00Z,26.4645,-82.1044,2.24,1111122 
SCCF RECON,ioos:station:SCCF:56:1,2019-03-09T21:00:00Z,26.4645,-82.1044,2.1,1111122 
SCCF RECON,ioos:station:SCCF:56:1,2019-03-09T22:00:00Z,26.4645,-82.1044,2.39,1111122 
SCCF RECON,ioos:station:SCCF:56:1,2019-03-09T23:00:00Z,26.4645,-82.1044,2.53,1111122 
SCCF RECON,ioos:station:SCCF:56:1,2019-03-10T05:00:00Z,26.4645,-82.1044,2.15,1111122 
SCCF RECON,ioos:station:SCCF:56:1,2019-03-10T06:00:00Z,26.4645,-82.1044,2.4,1111122 
SCCF RECON,ioos:station:SCCF:56:1,2019-03-10T07:00:00Z,26.4645,-82.1044,2.35,1111122 
SCCF RECON,ioos:station:SCCF:56:1,2019-03-10T08:00:00Z,26.4645,-82.1044,2.43,1111122 
SCCF RECON,ioos:station:SCCF:56:1,2019-03-10T09:00:00Z,26.4645,-82.1044,2.49,1111122 
SCCF RECON,ioos:station:SCCF:56:1,2019-03-10T10:00:00Z,26.4645,-82.1044,2.22,1111122 
SCCF RECON,ioos:station:SCCF:56:1,2019-03-10T11:00:00Z,26.4645,-82.1044,2.13,1111122 
SCCF RECON,ioos:station:SCCF:56:1,2019-03-10T12:00:00Z,26.4645,-82.1044,2.12,1111122 
SCCF RECON,ioos:station:SCCF:56:1,2019-03-10T13:00:00Z,26.4645,-82.1044,2.01,1111122 
SCCF RECON,ioos:station:SCCF:56:1,2019-03-10T14:00:00Z,26.4645,-82.1044,2.09,1111122 
SCCF RECON,ioos:station:SCCF:56:1,2019-03-10T15:00:00Z,26.4645,-82.1044,2.02,1111122 
SCCF RECON,ioos:station:SCCF:56:1,2019-03-10T16:00:00Z,26.4645,-82.1044,2.03,1111122 
SCCF RECON,ioos:station:SCCF:56:1,2019-03-10T17:00:00Z,26.4645,-82.1044,1.87,1111122 
SCCF RECON,ioos:station:SCCF:56:1,2019-03-10T18:00:00Z,26.4645,-82.1044,2.07,1111122 
SCCF RECON,ioos:station:SCCF:56:1,2019-03-10T19:00:00Z,26.4645,-82.1044,2.19,1111122 
SCCF RECON,ioos:station:SCCF:56:1,2019-03-10T20:00:00Z,26.4645,-82.1044,2.15,1111122 
SCCF RECON,ioos:station:SCCF:56:1,2019-03-10T21:00:00Z,26.4645,-82.1044,2.2,1111122 
SCCF RECON,ioos:station:SCCF:56:1,2019-03-10T22:00:00Z,26.4645,-82.1044,2.37,1111122 
SCCF RECON,ioos:station:SCCF:56:1,2019-03-11T04:00:00Z,26.4645,-82.1044,2.27,1111122 
SCCF RECON,ioos:station:SCCF:56:1,2019-03-11T05:00:00Z,26.4645,-82.1044,2.23,1111122 
SCCF RECON,ioos:station:SCCF:56:1,2019-03-11T06:00:00Z,26.4645,-82.1044,2.26,1111122 
SCCF RECON,ioos:station:SCCF:56:1,2019-03-11T07:00:00Z,26.4645,-82.1044,2.29,1111122 
SCCF RECON,ioos:station:SCCF:56:1,2019-03-11T08:00:00Z,26.4645,-82.1044,2.28,1111122 
SCCF RECON,ioos:station:SCCF:56:1,2019-03-11T09:00:00Z,26.4645,-82.1044,2.22,1111122 
SCCF RECON,ioos:station:SCCF:56:1,2019-03-11T10:00:00Z,26.4645,-82.1044,2.2,1111122 
SCCF RECON,ioos:station:SCCF:56:1,2019-03-11T11:00:00Z,26.4645,-82.1044,2.06,1111122 
SCCF RECON,ioos:station:SCCF:56:1,2019-03-11T12:00:00Z,26.4645,-82.1044,2.08,1111122 
SCCF RECON,ioos:station:SCCF:56:1,2019-03-11T13:00:00Z,26.4645,-82.1044,2.0,1111122 
SCCF RECON,ioos:station:SCCF:56:1,2019-03-11T14:00:00Z,26.4645,-82.1044,1.98,1111122 
SCCF RECON,ioos:station:SCCF:56:1,2019-03-11T15:00:00Z,26.4645,-82.1044,2.0,1111122 
SCCF RECON,ioos:station:SCCF:56:1,2019-03-11T16:00:00Z,26.4645,-82.1044,1.93,1111122 
SCCF RECON,ioos:station:SCCF:56:1,2019-03-11T17:00:00Z,26.4645,-82.1044,1.87,1111122 
SCCF RECON,ioos:station:SCCF:56:1,2019-03-11T18:00:00Z,26.4645,-82.1044,1.89,1111122 
SCCF RECON,ioos:station:SCCF:56:1,2019-03-11T19:00:00Z,26.4645,-82.1044,2.05,1111122 
SCCF RECON,ioos:station:SCCF:56:1,2019-03-11T20:00:00Z,26.4645,-82.1044,2.19,1111122 
SCCF RECON,ioos:station:SCCF:56:1,2019-03-11T21:00:00Z,26.4645,-82.1044,2.34,1111122 
SCCF RECON,ioos:station:SCCF:56:1,2019-03-11T22:00:00Z,26.4645,-82.1044,2.27,1111122 
SCCF RECON,ioos:station:SCCF:56:1,2019-03-11T23:00:00Z,26.4645,-82.1044,2.32,1111122 
SCCF RECON,ioos:station:SCCF:56:1,2019-03-12T04:00:00Z,26.4645,-82.1044,2.36,1111122 
SCCF RECON,ioos:station:SCCF:56:1,2019-03-12T05:00:00Z,26.4645,-82.1044,2.31,1111122 
SCCF RECON,ioos:station:SCCF:56:1,2019-03-12T06:00:00Z,26.4645,-82.1044,2.22,1111122 
SCCF RECON,ioos:station:SCCF:56:1,2019-03-12T07:00:00Z,26.4645,-82.1044,2.03,1111122 
SCCF RECON,ioos:station:SCCF:56:1,2019-03-12T08:00:00Z,26.4645,-82.1044,2.01,1111122 
SCCF RECON,ioos:station:SCCF:56:1,2019-03-12T09:00:00Z,26.4645,-82.1044,2.01,1111122 
SCCF RECON,ioos:station:SCCF:56:1,2019-03-12T10:00:00Z,26.4645,-82.1044,2.13,1111122 
SCCF RECON,ioos:station:SCCF:56:1,2019-03-12T11:00:00Z,26.4645,-82.1044,2.21,1111122 
SCCF RECON,ioos:station:SCCF:56:1,2019-03-12T12:00:00Z,26.4645,-82.1044,2.09,1111122 
SCCF RECON,ioos:station:SCCF:56:1,2019-03-12T13:00:00Z,26.4645,-82.1044,1.96,1111122 
SCCF RECON,ioos:station:SCCF:56:1,2019-03-12T14:00:00Z,26.4645,-82.1044,1.96,1111122 
SCCF RECON,ioos:station:SCCF:56:1,2019-03-12T15:00:00Z,26.4645,-82.1044,1.99,1111122 
SCCF RECON,ioos:station:SCCF:56:1,2019-03-12T16:00:00Z,26.4645,-82.1044,1.96,1111122 
SCCF RECON,ioos:station:SCCF:56:1,2019-03-12T17:00:00Z,26.4645,-82.1044,1.84,1111122 
SCCF RECON,ioos:station:SCCF:56:1,2019-03-12T18:00:00Z,26.4645,-82.1044,1.88,1111122 
SCCF RECON,ioos:station:SCCF:56:1,2019-03-12T19:00:00Z,26.4645,-82.1044,2.05,1111122 
SCCF RECON,ioos:station:SCCF:56:1,2019-03-12T20:00:00Z,26.4645,-82.1044,2.19,1111122 
SCCF RECON,ioos:station:SCCF:56:1,2019-03-12T21:00:00Z,26.4645,-82.1044,2.33,1111122 
SCCF RECON,ioos:station:SCCF:56:1,2019-03-12T22:00:00Z,26.4645,-82.1044,2.52,1111122 
SCCF RECON,ioos:station:SCCF:56:1,2019-03-12T23:00:00Z,26.4645,-82.1044,2.19,1111122 
SCCF RECON,ioos:station:SCCF:56:1,2019-03-13T04:00:00Z,26.4645,-82.1044,2.26,1111122 
SCCF RECON,ioos:station:SCCF:56:1,2019-03-13T05:00:00Z,26.4645,-82.1044,2.3,1111122 
SCCF RECON,ioos:station:SCCF:56:1,2019-03-13T06:00:00Z,26.4645,-82.1044,2.23,1111122 
SCCF RECON,ioos:station:SCCF:56:1,2019-03-13T07:00:00Z,26.4645,-82.1044,2.57,1111122 
SCCF RECON,ioos:station:SCCF:56:1,2019-03-13T08:00:00Z,26.4645,-82.1044,2.36,1111122 
SCCF RECON,ioos:station:SCCF:56:1,2019-03-13T09:00:00Z,26.4645,-82.1044,2.27,1111122 
SCCF RECON,ioos:station:SCCF:56:1,2019-03-13T10:00:00Z,26.4645,-82.1044,2.16,1111122 
SCCF RECON,ioos:station:SCCF:56:1,2019-03-13T11:00:00Z,26.4645,-82.1044,2.06,1111122 
SCCF RECON,ioos:station:SCCF:56:1,2019-03-13T12:00:00Z,26.4645,-82.1044,1.93,1111122 
SCCF RECON,ioos:station:SCCF:56:1,2019-03-13T13:00:00Z,26.4645,-82.1044,1.95,1111122 
SCCF RECON,ioos:station:SCCF:56:1,2019-03-13T14:00:00Z,26.4645,-82.1044,1.9,1111122 
SCCF RECON,ioos:station:SCCF:56:1,2019-03-13T15:00:00Z,26.4645,-82.1044,1.74,1111122 
SCCF RECON,ioos:station:SCCF:56:1,2019-03-13T16:00:00Z,26.4645,-82.1044,1.81,1111122 
SCCF RECON,ioos:station:SCCF:56:1,2019-03-13T17:00:00Z,26.4645,-82.1044,1.68,1111122 
SCCF RECON,ioos:station:SCCF:56:1,2019-03-13T18:00:00Z,26.4645,-82.1044,1.87,1111122 
SCCF RECON,ioos:station:SCCF:56:1,2019-03-13T19:00:00Z,26.4645,-82.1044,1.92,1111122 
SCCF RECON,ioos:station:SCCF:56:1,2019-03-13T20:00:00Z,26.4645,-82.1044,1.94,1111122 
SCCF RECON,ioos:station:SCCF:56:1,2019-03-13T21:00:00Z,26.4645,-82.1044,2.01,1111122 
SCCF RECON,ioos:station:SCCF:56:1,2019-03-13T22:00:00Z,26.4645,-82.1044,1.96,1111122 
SCCF RECON,ioos:station:SCCF:56:1,2019-03-13T23:00:00Z,26.4645,-82.1044,2.25,1111122 
SCCF RECON,ioos:station:SCCF:56:1,2019-03-14T04:00:00Z,26.4645,-82.1044,2.05,1111122 
SCCF RECON,ioos:station:SCCF:56:1,2019-03-14T05:00:00Z,26.4645,-82.1044,2.05,1111122 
SCCF RECON,ioos:station:SCCF:56:1,2019-03-14T06:00:00Z,26.4645,-82.1044,2.13,1111122 
SCCF RECON,ioos:station:SCCF:56:1,2019-03-14T07:00:00Z,26.4645,-82.1044,2.08,1111122 
SCCF RECON,ioos:station:SCCF:56:1,2019-03-14T08:00:00Z,26.4645,-82.1044,2.06,1111122 
SCCF RECON,ioos:station:SCCF:56:1,2019-03-14T09:00:00Z,26.4645,-82.1044,1.91,1111122 
SCCF RECON,ioos:station:SCCF:56:1,2019-03-14T10:00:00Z,26.4645,-82.1044,1.94,1111122 
SCCF RECON,ioos:station:SCCF:56:1,2019-03-14T11:00:00Z,26.4645,-82.1044,2.07,1111122 
SCCF RECON,ioos:station:SCCF:56:1,2019-03-14T12:00:00Z,26.4645,-82.1044,2.1,1111122 
SCCF RECON,ioos:station:SCCF:56:1,2019-03-14T13:00:00Z,26.4645,-82.1044,1.94,1111122 
SCCF RECON,ioos:station:SCCF:56:1,2019-03-14T14:00:00Z,26.4645,-82.1044,1.82,1111122 
SCCF RECON,ioos:station:SCCF:56:1,2019-03-14T15:00:00Z,26.4645,-82.1044,1.85,1111122 
SCCF RECON,ioos:station:SCCF:56:1,2019-03-14T16:00:00Z,26.4645,-82.1044,1.95,1111122 
SCCF RECON,ioos:station:SCCF:56:1,2019-03-14T17:00:00Z,26.4645,-82.1044,1.81,1111122 
SCCF RECON,ioos:station:SCCF:56:1,2019-03-14T18:00:00Z,26.4645,-82.1044,1.89,1111122 
SCCF RECON,ioos:station:SCCF:56:1,2019-03-14T19:00:00Z,26.4645,-82.1044,1.75,1111122 
SCCF RECON,ioos:station:SCCF:56:1,2019-03-14T20:00:00Z,26.4645,-82.1044,1.88,1111122 
SCCF RECON,ioos:station:SCCF:56:1,2019-03-14T21:00:00Z,26.4645,-82.1044,2.05,1111122 
SCCF RECON,ioos:station:SCCF:56:1,2019-03-14T22:00:00Z,26.4645,-82.1044,2.03,1111122 
SCCF RECON,ioos:station:SCCF:56:1,2019-03-14T23:00:00Z,26.4645,-82.1044,2.0,1111122 
SCCF RECON,ioos:station:SCCF:56:1,2019-03-15T04:00:00Z,26.4645,-82.1044,1.99,1111122 
SCCF RECON,ioos:station:SCCF:56:1,2019-03-15T05:00:00Z,26.4645,-82.1044,1.99,1111122 
SCCF RECON,ioos:station:SCCF:56:1,2019-03-15T06:00:00Z,26.4645,-82.1044,1.99,1111122 
SCCF RECON,ioos:station:SCCF:56:1,2019-03-15T07:00:00Z,26.4645,-82.1044,2.02,1111122 
SCCF RECON,ioos:station:SCCF:56:1,2019-03-15T08:00:00Z,26.4645,-82.1044,2.07,1111122 
SCCF RECON,ioos:station:SCCF:56:1,2019-03-15T09:00:00Z,26.4645,-82.1044,2.07,1111122 
SCCF RECON,ioos:station:SCCF:56:1,2019-03-15T10:00:00Z,26.4645,-82.1044,1.93,1111122 
SCCF RECON,ioos:station:SCCF:56:1,2019-03-15T11:00:00Z,26.4645,-82.1044,1.79,1111122 
SCCF RECON,ioos:station:SCCF:56:1,2019-03-15T12:00:00Z,26.4645,-82.1044,1.92,1111122 
SCCF RECON,ioos:station:SCCF:56:1,2019-03-15T13:00:00Z,26.4645,-82.1044,1.89,1111122 
SCCF RECON,ioos:station:SCCF:56:1,2019-03-15T14:00:00Z,26.4645,-82.1044,1.79,1111122 